Simultaneous Nadir Overpasses (SNOs) Predictions

Prediction of SNOs between NOAA-19 and TERRA Satellite Orbit:

Table of predicted SNOs for the next 14.0 days since TLE Epoch: 3/17/2018
Index Date (NOAA-19) Time (NOAA-19) Lat,Lon (NOAA-19) SZA (NOAA-19 ) Date (TERRA) Time (TERRA) Lat,Lon (TERRA) SZA (TERRA ) Distance(km) Time Diff (sec)
1 03/19/2018 00:55:49 76.77,-179.04 77.69 03/19/2018 00:56:59 76.76,-178.99 77.69 1.75 70
2 03/19/2018 01:46:43 -76.71, -11.51 102.38 03/19/2018 01:46:27 -76.69, -11.60 102.41 3.30 16
3 03/21/2018 06:29:32 -77.18, -84.18 102.87 03/21/2018 06:30:38 -77.11, -81.14 102.77 75.55 66
4 03/21/2018 07:20:26 76.71, 85.13 76.76 03/21/2018 07:20:12 76.72, 85.07 76.76 1.84 14
5 03/23/2018 12:54:00 -76.72,-178.23 104.10 03/23/2018 12:54:00 -76.74,-178.31 104.09 2.92 0
6 03/25/2018 18:27:44 76.74, -81.67 75.05 03/25/2018 18:27:47 76.75, -81.72 75.06 1.58 3
7 03/25/2018 19:18:30 -76.34, 87.24 105.26 03/25/2018 19:17:22 -76.40, 84.71 105.37 66.58 68
8 03/28/2018 00:01:18 -76.78, 14.84 105.78 03/28/2018 00:01:37 -76.75, 14.83 105.81 3.33 19
9 03/28/2018 00:52:17 76.48,-176.68 73.99 03/28/2018 00:51:07 76.54,-178.26 73.94 41.60 70
10 03/30/2018 05:35:02 76.79, 111.46 73.37 03/30/2018 05:35:25 76.79, 111.50 73.38 1.20 23




NCC Satellite Simultaneous Nadir Overpasses (SNOs) Prediction Service
